Tracking 20748 objects as of 4-Jun-2020
HD Live streaming from Space Station
objects crossing your sky now
Track the most recent launched group of Starlink satellites

DIAMANT B-P4 R/B

Track DIAMANT B-P4 R/B now!
10-day predictions


NORAD ID: 7647
Int'l Code: 1975-010B
Perigee: 804.3 km
Apogee: 1,124.9 km
Inclination: 49.8 °
Period: 104.2 minutes
Semi major axis: 7335 km
RCS: 0.969 m2 (medium)
Launch date: February 6, 1975
Source: France (FR)
Launch site: FRENCH GUIANA (FRGUI)

Note: This is a ROCKET BODY
aabbcc
Your satellite tracking list
Your tracking list is empty




NASA's NSSDC Master Catalog

Two Line Element Set (TLE):
1  7647U 75010B   20156.06846228 -.00000100  00000-0  32928-4 0  9997
2  7647  49.8264   3.7944 0218502 169.3699 191.1921 13.81823165286533
Source of the keplerian elements: AFSPC